When you browse on this site, cookies collect data to enhance your experience and personalize the content and advertising you see.
Visit our Privacy Policy to learn more. By continuing to use the site, you agree to this use of cookies and data.
  • In Sweden
  • List of Countries
  • For 7 days
  • Water Temperature
  • Weather Map
  • Weather Widgets
  • user-avatar
    Login

    Hourly Weather Batina

    Today, 19 October, Saturday

    Time Temperature Precipitation Wind Pressure Humidity
    00:00 +18°C° 0 mm 1 mps 671 mmHg 71%
    01:00 +18°C° 0 mm 1 mps 671 mmHg 72%
    02:00 +17°C° 0 mm 2 mps 671 mmHg 73%
    03:00 +16°C° 0 mm 2 mps 671 mmHg 73%
    04:00 +16°C° 0 mm 2 mps 670 mmHg 74%
    05:00 +16°C° 0 mm 2 mps 670 mmHg 75%
    06:00 +16°C° 0 mm 2 mps 670 mmHg 76%
    07:00 +17°C° 0 mm 2 mps 671 mmHg 68%
    08:00 +19°C° 0 mm 3 mps 672 mmHg 60%
    09:00 +21°C° 0 mm 3 mps 673 mmHg 51%
    10:00 +22°C° 0 mm 4 mps 673 mmHg 48%
    11:00 +23°C° 0 mm 5 mps 672 mmHg 45%
    12:00 +23°C° 0 mm 6 mps 672 mmHg 42%
    13:00 +23°C° 0 mm 6 mps 672 mmHg 43%
    14:00 +23°C° 0 mm 5 mps 671 mmHg 43%
    15:00 +23°C° 0 mm 5 mps 671 mmHg 43%
    16:00 +22°C° 0 mm 4 mps 671 mmHg 47%
    17:00 +20°C° 0 mm 3 mps 670 mmHg 52%
    18:00 +19°C° 0 mm 2 mps 670 mmHg 56%
    19:00 +19°C° 0 mm 2 mps 670 mmHg 57%
    20:00 +18°C° 0 mm 2 mps 671 mmHg 59%
    21:00 +18°C° 0 mm 2 mps 671 mmHg 60%
    22:00 +18°C° 0 mm 2 mps 671 mmHg 60%
    23:00 +17°C° 0 mm 2 mps 671 mmHg 60%

    Tomorrow, 20 October, Sunday

    Time Temperature Precipitation Wind Pressure Humidity
    00:00 +17°C° 0 mm 2 mps 670 mmHg 61%
    01:00 +17°C° 0 mm 2 mps 670 mmHg 61%
    02:00 +16°C° 0 mm 2 mps 670 mmHg 61%
    03:00 +16°C° 0 mm 2 mps 670 mmHg 61%
    04:00 +16°C° 0 mm 2 mps 670 mmHg 61%
    05:00 +16°C° 0 mm 2 mps 670 mmHg 61%
    06:00 +16°C° 0 mm 2 mps 670 mmHg 61%
    07:00 +18°C° 0 mm 2 mps 671 mmHg 54%
    08:00 +20°C° 0 mm 3 mps 671 mmHg 47%
    09:00 +22°C° 0 mm 3 mps 672 mmHg 40%
    10:00 +22°C° 0 mm 3 mps 672 mmHg 38%
    11:00 +24°C° 0 mm 3 mps 672 mmHg 36%
    12:00 +25°C° 0 mm 3 mps 672 mmHg 34%
    13:00 +25°C° 0 mm 4 mps 672 mmHg 34%
    14:00 +25°C° 0 mm 4 mps 671 mmHg 35%
    15:00 +25°C° 0 mm 4 mps 671 mmHg 35%
    16:00 +22°C° 0 mm 3 mps 671 mmHg 40%
    17:00 +21°C° 0 mm 3 mps 671 mmHg 45%
    18:00 +20°C° 0 mm 2 mps 671 mmHg 50%
    19:00 +19°C° 0 mm 2 mps 671 mmHg 51%
    20:00 +19°C° 0 mm 2 mps 671 mmHg 53%
    21:00 +19°C° 0 mm 1 mps 671 mmHg 55%
    22:00 +19°C° 0 mm 1 mps 671 mmHg 56%
    23:00 +19°C° 0 mm 1 mps 671 mmHg 57%

    Day after tomorrow, 21 October, Monday

    Time Temperature Precipitation Wind Pressure Humidity
    00:00 +18°C° 0 mm 1 mps 671 mmHg 58%
    01:00 +18°C° 0 mm 1 mps 671 mmHg 59%
    02:00 +18°C° 0 mm 1 mps 671 mmHg 60%
    03:00 +18°C° 0 mm 1 mps 671 mmHg 61%
    04:00 +16°C° 0 mm 1 mps 671 mmHg 63%
    05:00 +16°C° 0 mm 1 mps 670 mmHg 64%
    06:00 +16°C° 0 mm 1 mps 670 mmHg 65%
    07:00 +18°C° 0 mm 2 mps 671 mmHg 58%
    08:00 +20°C° 0 mm 2 mps 672 mmHg 51%
    09:00 +22°C° 0 mm 3 mps 673 mmHg 44%
    10:00 +24°C° 0 mm 3 mps 673 mmHg 42%
    11:00 +25°C° 0 mm 4 mps 673 mmHg 39%
    12:00 +26°C° 0 mm 4 mps 672 mmHg 36%
    13:00 +26°C° 0 mm 5 mps 672 mmHg 37%
    14:00 +26°C° 0 mm 5 mps 672 mmHg 38%
    15:00 +26°C° 0 mm 5 mps 671 mmHg 38%
    16:00 +23°C° 0.1 mm 4 mps 671 mmHg 47%
    17:00 +22°C° 0.1 mm 3 mps 671 mmHg 55%
    18:00 +20°C° 0.1 mm 2 mps 670 mmHg 63%
    19:00 +19°C° 0.3 mm 2 mps 670 mmHg 66%
    20:00 +20°C° 0.3 mm 1 mps 670 mmHg 69%
    21:00 +19°C° 0.3 mm 1 mps 670 mmHg 72%
    22:00 +19°C° 0 mm 1 mps 670 mmHg 72%
    23:00 +19°C° 0 mm 1 mps 670 mmHg 73%

    22 October, Tuesday

    Time Temperature Precipitation Wind Pressure Humidity
    00:00 +18°C° 0 mm 1 mps 669 mmHg 74%
    01:00 +18°C° 0 mm 1 mps 669 mmHg 75%
    02:00 +17°C° 0 mm 2 mps 668 mmHg 75%
    03:00 +16°C° 0 mm 2 mps 668 mmHg 76%
    04:00 +16°C° 0 mm 2 mps 668 mmHg 76%
    05:00 +16°C° 0 mm 2 mps 668 mmHg 75%
    06:00 +16°C° 0 mm 1 mps 668 mmHg 75%
    07:00 +18°C° 0 mm 2 mps 668 mmHg 65%
    08:00 +20°C° 0 mm 2 mps 669 mmHg 54%
    09:00 +23°C° 0 mm 2 mps 670 mmHg 44%
    10:00 +25°C° 0 mm 3 mps 670 mmHg 39%
    11:00 +26°C° 0 mm 3 mps 670 mmHg 34%
    12:00 +27°C° 0 mm 4 mps 670 mmHg 29%
    13:00 +27°C° 0 mm 4 mps 670 mmHg 30%
    14:00 +27°C° 0 mm 5 mps 669 mmHg 31%
    15:00 +27°C° 0 mm 6 mps 669 mmHg 32%
    16:00 +24°C° 0 mm 7 mps 668 mmHg 38%
    17:00 +23°C° 0 mm 7 mps 667 mmHg 45%
    18:00 +22°C° 0 mm 8 mps 667 mmHg 51%
    19:00 +21°C° 0 mm 7 mps 666 mmHg 51%
    20:00 +21°C° 0 mm 7 mps 666 mmHg 51%
    21:00 +21°C° 0 mm 6 mps 666 mmHg 50%
    22:00 +21°C° 0 mm 7 mps 665 mmHg 48%
    23:00 +21°C° 0 mm 8 mps 665 mmHg 46%

    23 October, Wednesday

    Time Temperature Precipitation Wind Pressure Humidity
    00:00 +21°C° 0 mm 9 mps 664 mmHg 44%
    01:00 +21°C° 0.1 mm 8 mps 664 mmHg 46%
    02:00 +21°C° 0.1 mm 8 mps 664 mmHg 48%
    03:00 +21°C° 0.1 mm 8 mps 663 mmHg 50%
    04:00 +21°C° 0 mm 9 mps 663 mmHg 51%
    05:00 +19°C° 0 mm 10 mps 663 mmHg 53%
    06:00 +19°C° 0 mm 12 mps 663 mmHg 55%
    07:00 +20°C° 0 mm 13 mps 663 mmHg 48%
    08:00 +20°C° 0 mm 14 mps 664 mmHg 42%
    09:00 +22°C° 0 mm 15 mps 664 mmHg 36%
    10:00 +20°C° 0 mm 14 mps 664 mmHg 36%
    11:00 +20°C° 0 mm 13 mps 664 mmHg 36%
    12:00 +19°C° 0 mm 12 mps 664 mmHg 36%
    13:00 +18°C° 0 mm 11 mps 664 mmHg 36%
    14:00 +17°C° 0 mm 10 mps 664 mmHg 36%
    15:00 +16°C° 0 mm 8 mps 664 mmHg 37%
    16:00 +15°C° 0 mm 7 mps 665 mmHg 42%
    17:00 +14°C° 0 mm 5 mps 665 mmHg 46%
    18:00 +13°C° 0 mm 3 mps 665 mmHg 51%
    19:00 +12°C° 0 mm 3 mps 666 mmHg 54%
    20:00 +12°C° 0 mm 3 mps 666 mmHg 57%
    21:00 +11°C° 0 mm 3 mps 666 mmHg 60%
    22:00 +11°C° 0 mm 3 mps 666 mmHg 62%
    23:00 +10°C° 0 mm 3 mps 666 mmHg 64%

    24 October, Thursday

    Time Temperature Precipitation Wind Pressure Humidity
    00:00 +10°C° 0 mm 3 mps 666 mmHg 66%
    01:00 +9°C° 0 mm 3 mps 666 mmHg 68%
    02:00 +9°C° 0 mm 3 mps 666 mmHg 70%
    03:00 +8°C° 0 mm 3 mps 666 mmHg 72%
    04:00 +8°C° 0 mm 3 mps 666 mmHg 71%
    05:00 +8°C° 0 mm 3 mps 666 mmHg 71%
    06:00 +7°C° 0 mm 3 mps 666 mmHg 70%
    07:00 +9°C° 0 mm 3 mps 666 mmHg 64%
    08:00 +10°C° 0 mm 4 mps 667 mmHg 57%
    09:00 +11°C° 0 mm 4 mps 667 mmHg 51%
    10:00 +12°C° 0 mm 5 mps 667 mmHg 48%
    11:00 +13°C° 0 mm 6 mps 668 mmHg 45%
    12:00 +14°C° 0 mm 7 mps 668 mmHg 43%
    13:00 +14°C° 0 mm 7 mps 667 mmHg 45%
    14:00 +14°C° 0 mm 6 mps 667 mmHg 48%
    15:00 +13°C° 0 mm 6 mps 667 mmHg 50%
    16:00 +13°C° 0 mm 6 mps 667 mmHg 53%
    17:00 +12°C° 0 mm 5 mps 667 mmHg 56%
    18:00 +10°C° 0 mm 5 mps 667 mmHg 58%
    19:00 +11°C° 0 mm 4 mps 668 mmHg 62%
    20:00 +10°C° 0 mm 3 mps 668 mmHg 65%
    21:00 +10°C° 0 mm 3 mps 668 mmHg 68%
    22:00 +9°C° 0 mm 3 mps 668 mmHg 68%
    23:00 +9°C° 0 mm 3 mps 668 mmHg 68%
    Show more